[[{"header":{"parameterUnit":"m.s-1","parameterCategory":1,"la1":30.2991,"la2":30.254,"lo1":-89.0895,"lo2":-89.0444,"dy":0.0017,"dx":0.0017,"nx":28,"ny":28,"refTime":"2026-01-04T03:00:00:Z","depth":0,"parameterNumber":2,"parameterNumberName":"U-component_of_WINDS"},"data":[0,0,0,0,0,0,0,0,0,0,0,0,0,0,0,0,0,0,0,0,0,0,0,0,0,0,0,0,0,0,0,0,0,0,0,0,0,0,0,0,0,0,0,0,0,0,0,0,0,0,0,0,0,0,0,0,0,0,-0.7441,-0.7443,0,-0.762,-0.7622,-0.7624,-0.7686,-0.7685,-0.7684,-0.7684,-0.7874,-0.788,-0.7886,0,0,0,0,0,0,0,0,0,0,0,0,0,-0.7157,-0.7162,-0.7441,-0.7443,-0.7445,-0.762,-0.7622,-0.7625,-0.7686,-0.7685,-0.7684,-0.7683,-0.7872,-0.7879,-0.7886,0,0,0,0,0,0,0,0,0,0,0,0,0,-0.7303,-0.7163,-0.744,-0.7496,-0.7503,-0.7619,-0.7622,-0.7626,-0.7686,-0.7685,-0.7684,-0.7683,-0.787,-0.7879,-0.7887,-0.7962,0,0,-0.7914,-0.7917,0,0,0,0,0,0,0,0,-0.7294,-0.7313,-0.7486,-0.7493,-0.7501,-0.7629,-0.7592,-0.7739,-0.7686,-0.7617,-0.7684,-0.7682,-0.7794,-0.7809,-0.7845,-0.7971,-0.798,-0.7914,-0.792,-0.7923,-0.7926,0,0,0,0,0,0,0,-0.7284,-0.7306,-0.7512,-0.7488,-0.7497,-0.7515,-0.7534,-0.762,-0.771,-0.7623,-0.7628,-0.7648,-0.7798,-0.7837,-0.785,-0.7982,-0.7914,-0.7922,-0.7927,-0.793,-0.818,-0.8181,0,0,0,0,0,0,-0.7264,-0.7297,-0.7506,-0.7517,-0.7392,-0.7521,-0.7543,-0.7589,-0.7709,-0.7726,-0.7649,-0.765,-0.7823,-0.784,-0.7857,-0.7954,-0.7923,-0.7931,-0.7936,-0.8178,-0.818,-0.8182,0,0,0,0,0,0,-0.7257,-0.7282,-0.7499,-0.7409,-0.7437,-0.7527,-0.7579,-0.7593,-0.7632,-0.7728,-0.7745,-0.7671,-0.7822,-0.7845,-0.7935,-0.7961,-0.7935,-0.7943,-0.8177,-0.8179,-0.8181,-0.8147,0,0,0,0,0,0,-0.7249,-0.7279,-0.7307,-0.7409,-0.7442,-0.7572,-0.758,-0.7598,-0.7646,-0.765,-0.7754,-0.7771,-0.7823,-0.7922,-0.7944,-0.7973,-0.795,-0.8175,-0.8178,-0.818,-0.8146,-0.8147,-0.8149,0,0,0,0,0,-0.7239,-0.7292,-0.7308,-0.7333,-0.7479,-0.7574,-0.7593,-0.7651,-0.7648,-0.7678,-0.774,-0.7767,-0.7954,-0.7931,-0.7956,-0.7988,-0.8174,-0.8177,-0.818,-0.8145,-0.8147,-0.8149,0,0,0,0,0,0,-0.7194,-0.7306,-0.7326,-0.7413,-0.7483,-0.7584,-0.7623,-0.7651,-0.7725,-0.7725,-0.7796,-0.7819,-0.7904,-0.7955,-0.7927,-0.8067,-0.8066,-0.8074,-0.8031,-0.8033,-0.8034,-0.8021,-0.7957,0,0,0,0,0,-0.7194,-0.7259,-0.7355,-0.7423,-0.7457,-0.7533,-0.7577,-0.7615,-0.7692,-0.7722,-0.7791,-0.7865,-0.7941,-0.799,-0.8065,-0.8153,-0.8178,-0.8187,-0.8188,-0.8189,-0.8196,-0.8247,-0.8253,-0.8192,-0.8192,-0.8192,0,0,-0.7196,-0.7265,-0.7303,-0.7416,-0.7474,-0.7543,-0.7558,-0.763,-0.7682,-0.7734,-0.7823,-0.7876,-0.7964,-0.8053,-0.8096,-0.8098,-0.8218,-0.8193,-0.8193,-0.82,-0.8251,-0.8257,-0.8262,-0.8195,-0.8194,-0.8194,0,0,-0.7233,-0.7291,-0.7354,-0.7412,-0.75,-0.755,-0.7565,-0.7662,-0.7698,-0.7788,-0.7828,-0.7892,-0.8021,-0.8082,-0.813,-0.8189,-0.8218,-0.8212,-0.8219,-0.8268,-0.8273,-0.8277,-0.8299,-0.8306,-0.8218,-0.8218,-0.8218,0,-0.7225,-0.7327,-0.7384,-0.7453,-0.7502,-0.7549,-0.7615,-0.7669,-0.7777,-0.7811,-0.7811,-0.7973,-0.8036,-0.8141,-0.8155,-0.8192,-0.8213,-0.8201,-0.8267,-0.8272,-0.8278,-0.8299,-0.8307,-0.8217,-0.8217,-0.8217,-0.8217,0,-0.7312,-0.7383,-0.7423,-0.7524,-0.7578,-0.7645,-0.7714,-0.7761,-0.7794,-0.7845,-0.7937,-0.8013,-0.8105,-0.8132,-0.8166,-0.8242,-0.8241,-0.8253,-0.8253,-0.8281,-0.8303,-0.8312,-0.8215,-0.8215,-0.8216,-0.8216,0,0,-0.7329,-0.7458,-0.7473,-0.7519,-0.7618,-0.7675,-0.7744,-0.7831,-0.7871,-0.7944,-0.8005,-0.8112,-0.8124,-0.8178,-0.822,-0.8262,-0.8305,-0.827,-0.8273,-0.8275,-0.8394,-0.8385,-0.8393,-0.8324,-0.8326,-0.8327,-0.8387,0,-0.738,-0.7503,-0.7556,-0.7657,-0.7723,-0.7768,-0.7829,-0.7897,-0.7947,-0.8012,-0.8068,-0.8142,-0.8152,-0.8185,-0.8229,-0.829,-0.833,-0.8287,-0.8384,-0.8386,-0.8361,-0.8405,-0.8396,-0.8449,-0.8396,-0.8397,-0.8398,0,-0.7457,-0.7527,-0.7633,-0.7723,-0.7753,-0.7807,-0.789,-0.7951,-0.803,-0.8064,-0.8123,-0.8162,-0.8238,-0.8232,-0.8339,-0.8308,-0.8351,-0.8387,-0.8391,-0.8403,-0.8395,-0.842,-0.8467,-0.8475,-0.8412,-0.8411,-0.841,0,-0.7459,-0.758,-0.7659,-0.7697,-0.7805,-0.7842,-0.7889,-0.7966,-0.8015,-0.8089,-0.8121,-0.8204,-0.8249,-0.8313,-0.8374,-0.8364,-0.8476,-0.8475,-0.8507,-0.8506,-0.853,-0.8528,-0.8586,-0.8555,-0.8555,-0.8555,-0.8555,0,-0.7511,-0.7574,-0.7661,-0.771,-0.7783,-0.7844,-0.7915,-0.7965,-0.8034,-0.8095,-0.8139,-0.8196,-0.8272,-0.8339,-0.8387,-0.8469,-0.849,-0.852,-0.8532,-0.8516,-0.8513,-0.8547,-0.8545,-0.8557,-0.8557,-0.8556,-0.8556,0,-0.7527,-0.7587,-0.7676,-0.777,-0.7795,-0.7844,-0.7926,-0.7976,-0.8026,-0.8103,-0.8125,-0.8205,-0.8286,-0.8352,-0.8459,-0.8491,-0.8577,-0.8591,-0.855,-0.8557,-0.8586,-0.8582,-0.8668,-0.8683,-0.8641,-0.8641,-0.8642,0,-0.7556,-0.7606,-0.7704,-0.7746,-0.7792,-0.786,-0.7909,-0.7971,-0.8021,-0.8114,-0.8153,-0.8236,-0.8307,-0.8434,-0.8504,-0.8586,-0.8603,-0.8627,-0.8615,-0.8598,-0.8604,-0.8601,-0.8607,-0.8628,-0.8629,-0.8629,-0.8629,0,-0.7604,-0.7631,-0.7698,-0.7776,-0.7833,-0.7898,-0.7964,-0.7997,-0.8072,-0.8126,-0.8207,-0.8261,-0.8369,-0.8452,-0.8541,-0.8592,-0.8624,-0.8631,-0.8644,-0.8629,-0.8603,-0.8618,-0.8554,-0.863,-0.863,-0.8629,-0.8629,-0.8629,-0.7628,-0.7674,-0.7749,-0.7823,-0.7879,-0.794,-0.7991,-0.8047,-0.8115,-0.8206,-0.8239,-0.8323,-0.8402,-0.8524,-0.8575,-0.8643,-0.8647,-0.8664,-0.8669,-0.8672,-0.867,-0.859,-0.866,-0.866,-0.866,-0.866,-0.866,0,-0.7678,-0.7728,-0.7796,-0.7886,-0.7944,-0.7965,-0.804,-0.8088,-0.816,-0.8229,-0.8296,-0.8391,-0.8471,-0.8546,-0.863,-0.867,-0.8687,-0.8691,-0.8689,-0.8701,-0.8662,-0.8643,-0.8676,-0.8676,-0.8676,-0.8676,-0.8676,-0.8676,-0.7711,-0.779,-0.7826,-0.7933,-0.7983,-0.8064,-0.8105,-0.8162,-0.8217,-0.8319,-0.8385,-0.8432,-0.8504,-0.8594,-0.8669,-0.8689,-0.8719,-0.8719,-0.8743,-0.8706,-0.8703,-0.8701,-0.8684,-0.8724,-0.8724,-0.8776,-0.8777,-0.8777]},{"header":{"parameterUnit":"m.s-1","parameterCategory":1,"la1":30.2991,"la2":30.254,"lo1":-89.0895,"lo2":-89.0444,"dy":0.0017,"dx":0.0017,"nx":28,"ny":28,"refTime":"2026-01-04T03:00:00:Z","depth":0,"parameterNumber":3,"parameterNumberName":"V-component_of_WINDS"},"data":[0,0,0,0,0,0,0,0,0,0,0,0,0,0,0,0,0,0,0,0,0,0,0,0,0,0,0,0,0,0,0,0,0,0,0,0,0,0,0,0,0,0,0,0,0,0,0,0,0,0,0,0,0,0,0,0,0,0,-0.1864,-0.1863,0,-0.1831,-0.1831,-0.1831,-0.1775,-0.1774,-0.1773,-0.1772,-0.1742,-0.1742,-0.1742,0,0,0,0,0,0,0,0,0,0,0,0,0,-0.1881,-0.188,-0.1864,-0.1863,-0.1863,-0.1831,-0.1831,-0.1831,-0.1775,-0.1774,-0.1773,-0.1772,-0.1742,-0.1742,-0.1742,0,0,0,0,0,0,0,0,0,0,0,0,0,-0.1863,-0.188,-0.1864,-0.1832,-0.1828,-0.1832,-0.1831,-0.183,-0.1776,-0.1774,-0.1773,-0.1771,-0.1742,-0.1742,-0.1742,-0.1775,0,0,-0.1743,-0.1743,0,0,0,0,0,0,0,0,-0.1864,-0.1863,-0.1837,-0.1834,-0.183,-0.1806,-0.1826,-0.1812,-0.1776,-0.1796,-0.1772,-0.177,-0.1764,-0.1763,-0.176,-0.1774,-0.1772,-0.1743,-0.1743,-0.1743,-0.1743,0,0,0,0,0,0,0,-0.1866,-0.1864,-0.1851,-0.1836,-0.1832,-0.182,-0.1815,-0.1823,-0.1789,-0.1794,-0.179,-0.1787,-0.1762,-0.176,-0.1759,-0.1772,-0.1743,-0.1743,-0.1743,-0.1743,-0.1812,-0.1813,0,0,0,0,0,0,-0.1871,-0.1865,-0.1852,-0.185,-0.1844,-0.1821,-0.1816,-0.1815,-0.1789,-0.1784,-0.1788,-0.1784,-0.176,-0.1759,-0.1758,-0.1796,-0.1743,-0.1743,-0.1743,-0.181,-0.1812,-0.1814,0,0,0,0,0,0,-0.1872,-0.1871,-0.1853,-0.1857,-0.1853,-0.1822,-0.1822,-0.1815,-0.1813,-0.1785,-0.1779,-0.1792,-0.1759,-0.1757,-0.1771,-0.1794,-0.1743,-0.1744,-0.1808,-0.1811,-0.1813,-0.1871,0,0,0,0,0,0,-0.1872,-0.1871,-0.1883,-0.1857,-0.1853,-0.1867,-0.1823,-0.1816,-0.1813,-0.1808,-0.1786,-0.1781,-0.1758,-0.1771,-0.1771,-0.1793,-0.1744,-0.1806,-0.1809,-0.1812,-0.1867,-0.1875,-0.1882,0,0,0,0,0,-0.1873,-0.1901,-0.1884,-0.1882,-0.1867,-0.1868,-0.1866,-0.1838,-0.1815,-0.1827,-0.1809,-0.1782,-0.1791,-0.1773,-0.1773,-0.1795,-0.1804,-0.1808,-0.1812,-0.1864,-0.1874,-0.1882,0,0,0,0,0,0,-0.1931,-0.1897,-0.1877,-0.1897,-0.1886,-0.1859,-0.1873,-0.1849,-0.1844,-0.184,-0.1805,-0.1801,-0.182,-0.1808,-0.1789,-0.1826,-0.1793,-0.1797,-0.1833,-0.1842,-0.185,-0.1853,-0.1744,0,0,0,0,0,-0.1945,-0.1948,-0.1919,-0.1939,-0.1934,-0.1905,-0.1904,-0.1883,-0.187,-0.1866,-0.1848,-0.1838,-0.1838,-0.1839,-0.1838,-0.1865,-0.186,-0.188,-0.1887,-0.1894,-0.1898,-0.1913,-0.1922,-0.1826,-0.1826,-0.1826,0,0,-0.1976,-0.1958,-0.1962,-0.195,-0.1939,-0.1944,-0.1901,-0.1908,-0.1911,-0.1867,-0.1879,-0.1866,-0.1852,-0.1873,-0.1881,-0.1864,-0.1923,-0.1899,-0.1904,-0.1905,-0.1918,-0.1927,-0.1935,-0.1829,-0.1828,-0.1828,0,0,-0.2035,-0.2021,-0.2037,-0.2027,-0.201,-0.199,-0.1994,-0.197,-0.196,-0.1971,-0.1938,-0.1942,-0.1943,-0.1935,-0.1931,-0.1987,-0.1962,-0.1987,-0.2028,-0.2042,-0.205,-0.2056,-0.2078,-0.2086,-0.1991,-0.1991,-0.1991,0,-0.2076,-0.2081,-0.2049,-0.2057,-0.2054,-0.2012,-0.2029,-0.2021,-0.2005,-0.2004,-0.1984,-0.1985,-0.1973,-0.1992,-0.2005,-0.2003,-0.2007,-0.199,-0.2051,-0.2057,-0.2063,-0.2083,-0.2091,-0.1995,-0.1994,-0.1994,-0.1994,0,-0.2133,-0.2137,-0.2152,-0.2137,-0.2135,-0.2147,-0.2118,-0.2119,-0.2099,-0.2081,-0.2094,-0.2077,-0.2072,-0.2075,-0.2055,-0.2091,-0.2081,-0.2057,-0.2024,-0.2076,-0.2094,-0.2102,-0.1999,-0.1998,-0.1997,-0.1996,0,0,-0.2228,-0.2195,-0.2201,-0.2194,-0.2172,-0.2175,-0.2187,-0.2181,-0.2184,-0.2174,-0.2184,-0.2186,-0.2163,-0.2159,-0.2137,-0.215,-0.2197,-0.2124,-0.2123,-0.2139,-0.2238,-0.2257,-0.2267,-0.218,-0.2181,-0.2182,-0.2239,0,-0.2284,-0.23,-0.2272,-0.2295,-0.23,-0.226,-0.227,-0.2259,-0.2243,-0.2244,-0.2227,-0.2229,-0.2199,-0.2196,-0.2206,-0.2189,-0.2216,-0.2184,-0.219,-0.2191,-0.2196,-0.2276,-0.2297,-0.2352,-0.2246,-0.2247,-0.2248,0,-0.2351,-0.2345,-0.2369,-0.2346,-0.2347,-0.2356,-0.2349,-0.2351,-0.2337,-0.2325,-0.232,-0.2294,-0.2305,-0.2272,-0.2286,-0.2265,-0.2266,-0.2257,-0.2259,-0.226,-0.2224,-0.2281,-0.2368,-0.2377,-0.2259,-0.2258,-0.2257,0,-0.242,-0.2417,-0.2431,-0.2426,-0.24,-0.2408,-0.2398,-0.2382,-0.2381,-0.2375,-0.2374,-0.237,-0.2368,-0.2365,-0.234,-0.2318,-0.2358,-0.2323,-0.235,-0.2351,-0.2361,-0.2361,-0.2452,-0.2359,-0.2359,-0.2359,-0.2359,0,-0.2487,-0.2503,-0.2462,-0.2471,-0.2489,-0.2456,-0.2475,-0.246,-0.2447,-0.2454,-0.2419,-0.2426,-0.2391,-0.2394,-0.2374,-0.2391,-0.2389,-0.2381,-0.2376,-0.2385,-0.2386,-0.2386,-0.2382,-0.2361,-0.236,-0.236,-0.236,0,-0.2567,-0.254,-0.2553,-0.2527,-0.2521,-0.2536,-0.2514,-0.2522,-0.2503,-0.2512,-0.2512,-0.2483,-0.2485,-0.2459,-0.2456,-0.2443,-0.2469,-0.2456,-0.2474,-0.247,-0.2499,-0.2498,-0.2594,-0.2606,-0.2504,-0.2505,-0.2506,0,-0.2612,-0.2624,-0.2599,-0.2601,-0.2592,-0.2594,-0.2593,-0.256,-0.256,-0.2546,-0.2556,-0.2555,-0.2553,-0.2559,-0.2539,-0.2537,-0.2525,-0.2559,-0.2524,-0.2534,-0.2527,-0.2528,-0.2529,-0.2567,-0.2568,-0.2569,-0.257,0,-0.2695,-0.2681,-0.268,-0.2674,-0.2673,-0.2667,-0.2659,-0.2662,-0.2627,-0.2629,-0.2631,-0.2629,-0.2626,-0.2626,-0.262,-0.2611,-0.2585,-0.258,-0.2587,-0.2597,-0.2608,-0.2604,-0.2495,-0.2579,-0.2578,-0.2577,-0.2577,-0.2576,-0.2761,-0.277,-0.2754,-0.2754,-0.2744,-0.2737,-0.2744,-0.2725,-0.2726,-0.2721,-0.2701,-0.2707,-0.2694,-0.2683,-0.2676,-0.268,-0.2664,-0.2673,-0.2675,-0.2678,-0.2685,-0.2605,-0.2679,-0.2678,-0.2678,-0.2678,-0.2677,0,-0.2843,-0.2831,-0.2831,-0.282,-0.2821,-0.2795,-0.2785,-0.2787,-0.2792,-0.2781,-0.278,-0.2782,-0.2782,-0.2762,-0.276,-0.2767,-0.2756,-0.2768,-0.2768,-0.2767,-0.2698,-0.2694,-0.2778,-0.2778,-0.2778,-0.2778,-0.2778,-0.2778,-0.2887,-0.2901,-0.2885,-0.2895,-0.2883,-0.2887,-0.2884,-0.2878,-0.2869,-0.2873,-0.2873,-0.2859,-0.2845,-0.2842,-0.2841,-0.2835,-0.2837,-0.2854,-0.2844,-0.2781,-0.2771,-0.2762,-0.2758,-0.2854,-0.2854,-0.2912,-0.2913,-0.2913]}]]